Notices

What's New in latest Release from April 7th, 2021:

- Updated Glossary, including Speed of Maximum Gust, and Total Hourly Precipitation

- Updated national and regional climate services offices contacts and prices information

- Addition of station inventory lists for 1981-2010, 1971-2000, and 1961-1990 Normals.

If you haven't already, please take our survey and provide feedback about our website: https://eccc.sondage-survey.ca/f/LanguageSelection.aspx?s=442ca660-fcf1-47c0-95a9-59707d6fd709

Hourly Data Report for December 19, 2019

CARBERRY CS
MANITOBA
Current Station Operator: ECCC - MSC

49°54'20.900" N
99°21'26.800" W
383.50 m
5010547
71170
WZE

Download Data

Hourly Data (December 2019)
Hourly Data Report for December 19, 2019
TIME
LST
Temp Definition
°C
Dew Point Definition
°C
Rel Hum Definition
%
Precip. Amount Definition
mm

Wind Dir Definition
10's deg

Wind Spd Definition
km/h
Visibility Definition
km
Stn Press Definition
kPa
Hmdx Definition


Wind Chill Definition


Weather Definition


00:00 -9.5 -11.5 85 0.0 3 10   96.89   -15 LegendNANA
01:00 -8.8 -10.7 86 0.0 5 4   96.97   -11 LegendNANA
02:00 -8.3 -10.5 84 0.0 3 10   97.06   -13 LegendNANA
03:00 -8.4 -11.4 79 0.0 3 13   97.20   -14 LegendNANA
04:00 -9.5 -12.1 82 0.0 3 20   97.19   -17 LegendNANA
05:00 -10.6 -13.0 83 0.0 2 17   97.27   -18 LegendNANA
06:00 -10.8 -13.0 84 0.0 3 13   97.36   -17 LegendNANA
07:00 -12.0 -14.3 83 0.0 5 16   97.42   -19 LegendNANA
08:00 -13.3 -15.6 83 0.0 3 10   97.42   -19 LegendNANA
09:00 -14.7 -18.3 74 0.0 2 11   97.47   -21 LegendNANA
10:00 -15.8 -19.6 73 0.0 3 11   97.55   -23 LegendNANA
11:00 -15.2 -18.7 75 0.0 3 11   97.61   -22 LegendNANA
12:00 -14.8 -18.0 77 0.0 3 10   97.64   -21 LegendNANA
13:00 -14.3 -17.6 76 0.0 5 9   97.62   -20 LegendNANA
14:00 -14.1 -17.1 78 0.0 7 14   97.53   -22 LegendNANA
15:00 -14.1 -16.9 79 0.0 6 10   97.62   -20 LegendNANA
16:00 -14.2 -16.7 82 0.0 5 11   97.62   -21 LegendNANA
17:00 -14.0 -16.1 84 0.0 6 12   97.59   -21 LegendNANA
18:00 -14.1 -15.9 86 0.0 5 12   97.56   -21 LegendNANA
19:00 -13.8 -15.7 86 0.0 6 16   97.56   -22 LegendNANA
20:00 -14.1 -16.9 79 0.0 8 22   97.57   -23 LegendNANA
21:00 -14.4 -16.7 82 0.0 10 9   97.66   -20 LegendNANA
22:00 -14.8 -17.0 84 0.0 8 5   97.68   -18 LegendNANA
23:00 -15.0 -17.0 84 0.0 7 7   97.60   -20 LegendNANA

Notes on Data Quality.

Legend

  • E = Estimated
  • M = Missing
  • NA = Not Available*
  • [empty] = Indicates an unobserved value
Date modified: